SORCE

Last updated on Sun Nov 16 2025 00:03:33 GMT+0000 (Coordinated Universal Time)

1 27651U 03004A 25319.51250564 .00005610 00000+0 43040-3 0 9991 2 27651 39.9926 39.3598 0017451 311.5077 48.4219 15.01986002239745
UTC large
Height (km)
Speed (km/s)
/
Latitude / Longitude
Inclination (degrees)
Orbital Period (minutes)
Azimuth
Elevation
Range (km)
Doppler Factor

Next 0 passes for location: London (51.5072 / 0.1276)

Sorry there are no passes over London.